Regional Weather Roundup
Issued by NWS Cleveland, OH

Home | Current Version | Previous Version | Graphics & Text | Print | Product List | Glossary On
Versions: 1 2 3 4 5 6 7 8 9 10 11 12 13 14 15 16 17 18 19 20 21 22 23 24 25 26 27 28 29 30 31 32 33 34 35 36 37 38 39 40 41 42 43 44 45 46 47 48 49 50
000
ASUS41 KCLE 271810
RWRCLE
OHIO REGIONAL WEATHER ROUNDUP
NATIONAL WEATHER SERVICE CLEVELAND, OH
200 PM EDT THU JUL 27 2017

NOTE: "FAIR" INDICATES FEW OR NO CLOUDS BELOW 12,000 FEET WITH NO
SIGNIFICANT WEATHER AND/OR OBSTRUCTIONS TO VISIBILITY.

OHZ001>008-015>018-024>027-034-035-043-044-271900-
   NORTHWEST OHIO

CITY           SKY/WX    TMP DP  RH WIND       PRES   REMARKS
DEFIANCE       PTSUNNY   82  70  66 CALM      29.91S
FINDLAY        CLOUDY    85  68  56 W8        29.90F
TOLEDO EXPRESS CLOUDY    82  68  62 E3        29.91S
TOLEDO EXEC    CLOUDY    81  67  62 E6        29.92F
LIMA           CLOUDY    76  70  82 W6        29.93S
$$

OHZ009>014-019>023-028>033-038-089-271900-
   NORTHEAST OHIO

CITY           SKY/WX    TMP DP  RH WIND       PRES   REMARKS
CLE-HOPKINS    MOSUNNY   86  65  49 VRB7      29.94F
CLE-LAKEFRONT  SUNNY     81  64  56 N7        29.92F
CUY CO. ARPT     N/A     82  64  54 N6          N/A
LORAIN-ELYRIA  CLOUDY    81  62  52 CALM      29.93F
ASHTABULA      CLOUDY    81  62  52 SE6       29.94F
AKRON-CANTON   CLOUDY    82  65  56 SW6       29.95S
WOOSTER        CLOUDY    80  68  66 CALM      29.95S
MANSFIELD      PTSUNNY   81  69  67 S8        29.95S
YOUNGSTOWN     PTSUNNY   83  60  45 SW6       29.95S
$$

OHZ042-051>053-060>062-070>072-077>081-271900-
  SOUTHWEST OHIO

CITY           SKY/WX    TMP DP  RH WIND       PRES   REMARKS
CINC-COVINGTON CLOUDY    84  74  71 W15       29.94F HX  91
CINC-LUNKEN    PTSUNNY   85  75  72 W6        29.93F HX  93
HAMILTON       CLOUDY    81  71  71 W12G20    29.94F
DAYTON         LGT RAIN  73  72  94 SW8       29.94S FOG
WRIGHT-PAT AFB RAIN      73  73 100 S9        29.92F FOG
DAYTON GENERAL HVY RAIN  75  72  90 W8        29.93F FOG
WILMINGTON     CLOUDY    77  75  93 CALM      29.93F
$$

OHZ036-037-039>041-045>050-054>059-063>069-073>076-082>088-271900-
  CENTRAL AND SOUTHEAST OHIO

CITY           SKY/WX    TMP DP  RH WIND       PRES   REMARKS
COLUMBUS       CLOUDY    77  71  82 SW8       29.93S
OSU AIRPORT    HVY RAIN  73  73 100 W6        29.93S VSB 1
BOLTON FIELD   HVY RAIN  73  73 100 S5G18     29.95F
RICKENBACK AFB RAIN      74  73  96 W12       29.94R
NEWARK         CLOUDY    79  71  76 S7        29.91F
MARION         CLOUDY    78  69  73 SW9       29.93F
LANCASTER      PTSUNNY   76  74  93 SE5       29.92F
ZANESVILLE     CLOUDY    77  71  82 SE7       29.92F
NEW PHILLY     NOT AVBL
$$




USA.gov is the U.S. government's official web portal to all federal, state and local government web resources and services.